sat.trackr.live / text

‹ back to catalog

STARLINK-3825

NORAD 52478 · 2022-049AD

PAYLOAD ACTIVE UNKNOWN

§ Identity

Operator
Country
US
Launch date
2022-05-06
Launch site
AFETR
Launch vehicle
Mass (kg)
RCS (m²)

Purposes: comms

External: N2YO · Heavens-Above · Gunter

§ Orbital elements

Epoch: 2026-09-20T03:12:30.383136Z

Period
93.79 min
Inclination
53.1597°
Eccentricity
0.0001321
Mean motion
15.35403508 rev/d
Perigee alt
458.8 km
Apogee alt
460.6 km
Semi-major
6,837.9 km
B*
1.4920e-4
RAAN
255.9698°
Arg perigee
81.1386°
Mean anomaly
278.9766°
Rev number
24,298

§ Raw data

STARLINK-38251 52478U 22049AD  26263.13368499  .00004828  00000+0  14920-3 0  99952 52478  53.1597 255.9698 0001321  81.1386 278.9766 15.35403508242980

JSON: /api/v1/satellites/52478 · /tle

For live sub-satellite position, see the globe view (requires WebGL).

§ Visibility from observer

Set your observer location to see the next 7 days of passes ≥ 10°. The values pass through the URL so the page stays shareable.

No JS? Fill the form by hand. The geolocation button needs JavaScript.